sat.trackr.live / text

‹ back to catalog

STARLINK-35021

NORAD 65282 · 2025-184K

PAYLOAD ACTIVE UNKNOWN

§ Identity

Operator
Country
US
Launch date
2025-08-22
Launch site
AFWTR
Launch vehicle
Mass (kg)
RCS (m²)

Purposes: comms

External: N2YO · Heavens-Above · Gunter

§ Orbital elements

Epoch: 2026-05-25T02:36:08.205120Z

Period
95.64 min
Inclination
97.4503°
Eccentricity
0.0001266
Mean motion
15.05657619 rev/d
Perigee alt
548.6 km
Apogee alt
550.4 km
Semi-major
6,927.6 km
B*
2.1382e-4
RAAN
197.6815°
Arg perigee
139.3811°
Mean anomaly
220.7511°
Rev number
4,275

§ Raw data

STARLINK-350211 65282U 25184K   26145.10842830  .00003028  00000+0  21382-3 0  99982 65282  97.4503 197.6815 0001266 139.3811 220.7511 15.05657619 42752

JSON: /api/v1/satellites/65282 · /tle

For live sub-satellite position, see the globe view (requires WebGL).

§ Visibility from observer

Set your observer location to see the next 7 days of passes ≥ 10°. The values pass through the URL so the page stays shareable.

No JS? Fill the form by hand. The geolocation button needs JavaScript.